Location: Turtle Rock Observatory
(36.6913°N, 81.9708°W)
Time: 02:46:02
(UTC-04:00)

Daily predictions for brighter satellites

Satellite Brightness Start Highest point End
(mag) Time Altitude Azimuth Time Altitude Azimuth Time Altitude Azimuth
USA 215 4.4 00:13:51 35° WNW 00:13:51 35° WNW 00:17:39 10° NW
SL-16 R/B 4.2 00:26:09 23° N 00:26:09 23° N 00:28:22 10° N
ATLAS CENTAUR R/B 4.4 01:31:55 69° WNW 01:32:31 70° NW 01:57:17 10° NE
ATLAS 3B R/B 4.5 01:39:03 26° ENE 01:39:03 26° ENE 01:42:13 10° NE
CZ-3A R/B 4.2 02:04:00 10° SW 02:26:06 56° NNW 02:30:28 10° NE
Cosmos 2219 Rocket 4.3 02:53:37 20° NNW 02:53:37 20° NNW 02:55:41 10° N
Cosmos 2333 Rocket 4.1 02:57:45 24° NNW 02:57:45 24° NNW 03:00:18 10° N
SL-16 R/B 3.8 03:00:03 30° NNE 03:00:03 30° NNE 03:02:51 10° NNE
Cosmos 2237 Rocket 4.1 03:06:52 24° NNW 03:06:52 24° NNW 03:09:26 10° N
BREEZE-M DEB (TANK) 4.2 03:20:28 83° NW 03:20:28 83° NW 03:25:20 10° NE
ATLAS 3B R/B 3.7 03:26:18 39° NW 03:26:18 39° NW 03:32:53 10° NNE
Resurs 1-4 Rocket 3.6 03:28:27 10° NE 03:32:24 30° E 03:32:24 30° E
Cosmos 1603 4.4 03:40:49 50° NE 03:40:49 50° NE 03:45:04 10° NNE
CZ-4C R/B 3.1 03:41:23 44° N 03:41:23 44° N 03:45:33 10° NNE
ATLAS 5 CENTAUR R/B 4.3 03:45:52 13° ESE 03:45:52 13° ESE 03:47:59 10° E
ARIANE 5 R/B 3.4 03:41:52 10° NNE 03:45:54 46° ENE 03:45:54 46° ENE
Okean O Rocket 4.1 03:54:38 10° ENE 03:57:15 15° E 03:58:24 14° ESE
SL-16 R/B 2.6 04:03:00 58° SE 04:04:08 71° ENE 04:10:18 10° N
USA 238 DEB 4.5 04:11:20 37° WNW 04:11:54 38° NW 04:18:25 10° NNE
USA 238 4.5 04:11:27 38° WNW 04:12:00 38° NW 04:18:32 10° NNE
Cosmos 1943 3.5 04:12:12 56° ESE 04:12:32 57° ESE 04:18:04 10° NNE
USA 234 3.6 04:07:19 10° NE 04:13:37 52° NW 04:14:35 48° WNW
Cosmos 2251 Rocket 3.7 04:14:04 70° ENE 04:14:04 70° ENE 04:18:59 10° NNE
S3M 4.3 04:15:52 52° NW 04:15:52 52° NW 04:21:20 10° N
SeaSat 1 3.8 04:12:29 10° SE 04:17:00 38° ENE 04:21:32 10° N
UNK 4.4 04:19:52 48° N 04:19:52 48° N 04:23:14 10° N
Cosmos 158 Rocket 4.5 04:24:01 48° NNW 04:24:01 48° NNW 04:28:02 10° N
Cosmos 1110 Rocket 4.3 04:21:06 10° NNW 04:26:18 66° ENE 04:28:45 31° SE
Cosmos 2369 Rocket 3.1 04:21:38 10° N 04:27:03 48° ENE 04:32:28 10° SE
Cosmos 1726 4.2 04:29:41 21° N 04:29:41 21° N 04:31:05 10° N
Cosmos 2242 Rocket 3.9 04:28:24 64° E 04:28:24 64° E 04:32:54 10° NNE
CZ-2D R/B 2.0 04:23:08 10° N 04:28:18 77° WNW 04:28:18 77° WNW
NOSS 3-2 (A) 3.5 04:28:40 57° WNW 04:29:13 60° NW 04:35:43 10° NNE
CZ-2D R/B 3.9 04:27:11 10° NNE 04:31:32 59° E 04:31:34 59° ESE
BREEZE-M DEB (TANK) 4.3 04:34:26 29° SSE 04:34:26 29° SSE 04:38:43 10° SE
Cosmos 1455 3.3 04:33:30 40° E 04:33:41 40° E 04:37:21 10° NNE
SL-16 R/B 4.2 04:41:56 13° NW 04:41:59 13° NW 04:44:43 10° NNW
Cosmos 1745 Rocket 4.3 04:36:50 10° NNW 04:42:42 44° W 04:42:42 44° W
NOSS 3-2 (C) 3.6 04:42:57 50° W 04:44:08 58° NW 04:50:38 10° NNE
Cosmos 1709 Rocket 4.0 04:38:40 10° N 04:45:04 83° E 04:50:07 17° S
Cosmos 1386 Rocket 4.5 04:39:29 10° NNW 04:45:39 58° W 04:46:47 51° SW
Meteor 1-27 4.3 04:47:53 50° W 04:48:08 51° WNW 04:53:33 10° N
Cosmos 1862 Rocket 4.3 04:47:13 31° SSE 04:48:55 49° E 04:53:09 10° NNE
CZ-4B R/B 4.2 04:45:57 10° NNE 04:49:15 32° E 04:50:41 24° SE
MOS 1-B 4.3 04:46:25 10° N 04:52:10 67° WNW 04:53:44 47° SW
Cosmos 839 Rocket 4.2 04:45:48 10° NNW 04:53:50 84° WSW 05:00:20 10° SSE
CENTAUR R/B 3.4 04:50:51 21° S 04:54:28 42° ESE 05:00:37 10° NE
Cosmos 1943 Rocket 3.6 04:56:16 10° N 05:01:35 39° ENE 05:06:48 10° SE
Cosmos 724 4.3 05:04:21 40° SW 05:06:28 69° WNW 05:12:27 10° NNE
UNKNOWN OBJECT B 3.9 05:04:03 10° N 05:06:33 29° NW 05:06:33 29° NW
Cosmos 1869 3.2 05:06:13 44° S 05:07:24 84° E 05:11:24 10° N
Cosmos 389 Rocket 3.0 05:08:00 33° SSE 05:09:14 55° E 05:12:39 10° NNE
Cosmos 494 Rocket 4.4 05:08:30 39° WSW 05:09:36 45° WNW 05:14:40 10° N
ARGOS Delta rocket 3.6 05:06:47 10° N 05:11:10 64° WNW 05:12:24 43° SW
Resurs 1-4 Rocket 3.1 05:08:23 10° N 05:12:49 28° WNW 05:13:28 28° W
ATLAS CENTAUR R/B 1.2 05:09:58 10° NNW 05:14:14 85° ENE 05:18:07 10° SSE
Cosmos 1302 Rocket 3.9 05:12:03 10° NNW 05:17:19 83° WSW 05:22:31 10° SSE
Cosmos 1825 4.1 05:13:56 10° NNE 05:17:21 31° ENE 05:20:45 10° SE
Atlas Centaur 2 4.2 05:16:22 10° SSE 05:17:44 11° SE 05:19:11 10° SE
Cosmos 1733 Rocket 2.9 05:15:46 10° N 05:20:08 74° W 05:24:10 12° S
ARIANE 5 R/B 4.2 05:22:23 10° NNW 05:25:38 17° WNW 05:26:14 17° WNW
BREEZE-M DEB (TANK) 4.3 05:24:46 10° NW 05:28:48 72° NE 05:39:56 10° ESE
Cosmos 1408 3.8 05:25:26 10° N 05:29:01 44° E 05:32:36 10° SSE
CZ-4C R/B 4.3 05:27:03 10° WNW 05:29:33 13° NNW 05:32:11 10° N
ATLAS 5 CENTAUR R/B 1.9 05:27:26 30° SW 05:29:47 64° NW 05:34:54 10° NNE
Cosmos 2221 Rocket 4.4 05:28:32 10° S 05:32:50 51° E 05:37:09 10° NNE
ADEOS II 2.9 05:27:49 10° NNE 05:32:58 52° E 05:38:04 10° S
Okean-O 3.3 05:29:01 10° NNE 05:33:23 56° E 05:37:43 10° S
Okean O Rocket 2.1 05:29:34 10° N 05:33:47 42° WNW 05:35:52 25° SW
Cosmos 1892 3.9 05:34:57 10° NW 05:37:56 24° W 05:37:56 24° W
CZ-2C R/B 3.9 05:34:20 10° S 05:38:37 46° W 05:42:53 10° NNW
PSLV R/B 4.3 05:39:06 19° WNW 05:41:08 39° N 05:44:21 10° ENE
MOZ.5/SAFIR/RUBIN 5/SL-8 4.2 05:39:10 10° SSW 05:43:29 39° W 05:47:50 10° NNW
COSMOS 2406 3.3 05:40:01 10° SSW 05:45:46 81° ESE 05:51:33 10° NNE
Cosmos 1908 Rocket 3.5 05:41:28 10° N 05:45:53 88° W 05:50:14 10° S
Geosat 4.0 05:41:34 10° NNE 05:46:33 66° WNW 05:50:54 14° SW
Thor Agena Rocket 3.5 05:41:31 10° S 05:46:35 70° WSW 05:51:46 10° NNW
Cosmos 1184 Rocket 3.4 05:44:53 10° NNW 05:48:05 38° W 05:51:14 10° SSW
SL-16 R/B 4.0 05:48:06 15° W 05:48:16 15° W 05:51:41 10° WNW
BREEZE-M DEB (TANK) 3.7 05:46:40 10° NW 05:48:43 32° NE 05:51:33 10° ESE
Sich 1 Rocket 3.5 05:44:52 10° NNW 05:49:12 63° W 05:53:33 10° S
SeaSat 1 3.4 05:50:34 10° SSW 05:54:33 25° WSW 05:58:35 10° NW
OAO 3 Copernicus 4.3 05:52:38 15° W 05:56:46 67° S 06:01:46 10° ESE
Pageos (A) 4.1 05:56:09 10° NNW 05:57:59 24° W 05:58:25 22° WSW
Cosmos 1190 Rocket 4.5 05:54:08 10° S 05:59:15 64° ESE 06:04:23 10° NNE
USA 32 4.0 05:55:16 10° SSW 06:00:28 67° W 06:05:42 10° N
Cosmos 1703 Rocket 3.6 05:56:15 10° SSW 06:00:41 65° W 06:05:09 10° N
CZ-4B R/B 4.0 06:04:24 10° N 06:08:57 30° WNW 06:13:29 10° SW
Cosmos 1455 4.3 06:08:34 11° W 06:09:36 11° WNW 06:10:56 10° NW
SL-27 R/B 3.3 06:06:48 11° SW 06:09:56 34° WNW 06:13:19 10° N
Cosmos 2369 Rocket 3.4 06:06:40 10° NW 06:10:39 20° W 06:14:38 10° SW
Cosmos 1992 Rocket 4.0 06:11:18 10° NNW 06:16:32 80° WSW 06:21:45 10° SSE
Meteor PRIRODA 4.1 06:18:34 10° N 06:22:10 45° WNW 06:25:46 10° SSW
Nadezhda 1 Rocket 4.5 06:21:13 10° SSW 06:27:00 41° WNW 06:32:56 10° N
Meteor 1-31 Rocket 2.7 06:23:48 10° N 06:27:35 67° WNW 06:31:21 10° SSW
Cosmos 2181 Rocket 4.2 06:23:27 10° S 06:29:54 89° E 06:36:22 10° N
